FW0267 Weather Reports


Display with metric or nautical units.
time (UTC)temp
F
wind
direction
speed
MPH
gust
MPH
rain 1hr
in
rain 24hr
in
rain mn
in
humidity
%
barometer
mb
20260505125002 65 241 1.0 4.0 0.00 0.00 0.00 40 1015.2
20260505124603 64 242 1.0 4.0 0.00 0.00 0.00 40 1015.2
20260505124100 64 205 1.0 4.0 0.00 0.00 0.00 35 1015.2
20260505123556 63 198 1.0 3.0 0.00 0.00 0.00 33 1015.3
20260505123057 63 198 1.0 6.0 0.00 0.00 0.00 27 1015.3
20260505122553 62 158 1.0 6.0 0.00 0.00 0.00 25 1015.2
20260505122052 62 213 2.0 5.0 0.00 0.00 0.00 20 1015.2
20260505121551 61 234 1.0 5.0 0.00 0.00 0.00 15 1015.2
20260505121050 61 235 2.0 5.0 0.00 0.00 0.00 10 1015.0
20260505120548 60 243 2.0 7.0 0.00 0.00 0.00 4 1015.0
20260505120050 60 215 2.0 7.0 0.00 0.00 0.00 1 1014.9
20260505115545 60 194 2.0 4.0 0.00 0.00 0.00 1 1014.9
20260505115045 59 196 1.0 4.0 0.00 0.00 0.00 1 1014.9
20260505114542 59 109 1.0 4.0 0.00 0.00 0.00 1 1014.9
20260505114040 58 169 1.0 3.0 0.00 0.00 0.00 1 1014.9
20260505113540 58 142 1.0 3.0 0.00 0.00 0.00 1 1014.9
20260505113042 58 142 0.0 2.0 0.00 0.00 0.00 1 1014.8
20260505112535 58 142 0.0 2.0 0.00 0.00 0.00 1 1014.9
20260505112035 57 142 0.0 2.0 0.00 0.00 0.00 1 1014.8
20260505111542 57 142 0.0 2.0 0.00 0.00 0.00 1 1014.8
20260505111032 57 142 0.0 2.0 0.00 0.00 0.00 1 1014.7
20260505110531 57 142 0.0 5.0 0.00 0.00 0.00 1 1014.6
20260505102019 58 136 0.0 0.0 0.00 0.00 0.00 15 1014.2
20260505101529 58 136 0.0 0.0 0.00 0.00 0.00 15 1014.3
20260505101018 58 136 0.0 0.0 0.00 0.00 0.00 17 1014.3
20260505100517 59 136 0.0 0.0 0.00 0.00 0.00 18 1014.2
20260505100017 59 136 0.0 0.0 0.00 0.00 0.00 20 1014.3
20260505095516 59 136 0.0 0.0 0.00 0.00 0.00 21 1014.2
20260505095014 59 136 0.0 0.0 0.00 0.00 0.00 22 1014.2
20260505094514 59 136 0.0 0.0 0.00 0.00 0.00 23 1014.2
20260505094013 59 136 0.0 0.0 0.00 0.00 0.00 24 1014.1
20260505093513 59 136 0.0 0.0 0.00 0.00 0.00 26 1014.1
20260505093012 60 136 0.0 0.0 0.00 0.00 0.00 26 1014.1
20260505092512 60 136 0.0 0.0 0.00 0.00 0.00 27 1014.0
20260505092011 60 136 0.0 1.0 0.00 0.00 0.00 28 1014.0
20260505091510 60 136 0.0 2.0 0.00 0.00 0.00 29 1014.0
20260505091010 60 136 0.0 3.0 0.00 0.00 0.00 30 1014.1
20260505090508 60 136 0.0 3.0 0.00 0.00 0.00 31 1014.0
20260505090011 60 179 0.0 3.0 0.00 0.00 0.00 31 1014.1
20260505085509 60 179 0.0 3.0 0.00 0.00 0.00 32 1014.0
20260505085007 61 179 1.0 3.0 0.00 0.00 0.00 33 1014.1
20260505084523 61 173 0.0 0.0 0.00 0.00 0.00 34 1014.0
20260505084006 61 173 0.0 0.0 0.00 0.00 0.00 34 1014.0
20260505083505 61 173 0.0 0.0 0.00 0.00 0.00 35 1014.0
20260505083005 61 173 0.0 0.0 0.00 0.00 0.00 35 1014.0
20260505082504 61 173 0.0 0.0 0.00 0.00 0.00 36 1014.1
20260505082004 61 173 0.0 1.0 0.00 0.00 0.00 37 1014.0
20260505081503 61 173 0.0 3.0 0.00 0.00 0.00 37 1014.0
20260505081003 61 173 1.0 3.0 0.00 0.00 0.00 38 1014.0
20260505080505 61 197 0.0 4.0 0.00 0.00 0.00 39 1014.0
20260505080004 61 197 2.0 4.0 0.00 0.00 0.00 39 1013.9
20260505075501 61 203 1.0 3.0 0.00 0.00 0.00 40 1014.0
20260505075100 61 203 1.0 3.0 0.00 0.00 0.00 40 1014.0
20260505074559 61 203 1.0 3.0 0.00 0.00 0.00 41 1013.8
20260505074059 61 214 0.0 3.0 0.00 0.00 0.00 42 1013.8
20260505073558 62 215 1.0 3.0 0.00 0.00 0.00 43 1013.8
20260505073102 62 215 1.0 3.0 0.00 0.00 0.00 44 1013.5
20260505072600 62 169 0.0 0.0 0.00 0.00 0.00 45 1013.5
20260505072058 62 158 0.0 4.0 0.00 0.00 0.00 46 1013.5
20260505071600 62 158 0.0 6.0 0.00 0.00 0.00 46 1013.5
20260505071054 62 169 1.0 6.0 0.00 0.00 0.00 47 1013.4
20260505070554 62 190 1.0 5.0 0.00 0.00 0.00 48 1013.3
20260505070103 62 188 1.0 4.0 0.00 0.00 0.00 49 1013.2
20260505065554 61 157 1.0 3.0 0.00 0.00 0.00 50 1013.3
20260505065052 61 150 0.0 4.0 0.00 0.00 0.00 50 1013.3
20260505064557 61 149 1.0 4.0 0.00 0.00 0.00 51 1013.3
20260505064051 62 122 0.0 3.0 0.00 0.00 0.00 52 1013.3
20260505063551 62 167 2.0 3.0 0.00 0.00 0.00 53 1013.2
20260505063051 62 164 0.0 3.0 0.00 0.00 0.00 54 1013.2
20260505062550 62 177 1.0 3.0 0.00 0.00 0.00 55 1013.3
20260505062052 62 155 1.0 3.0 0.00 0.00 0.00 55 1013.2
20260505061611 62 150 0.0 3.0 0.00 0.00 0.00 55 1013.3
20260505061049 62 162 1.0 3.0 0.00 0.00 0.00 55 1013.3
20260505060548 62 163 0.0 4.0 0.00 0.00 0.00 55 1013.3
20260505060053 62 162 0.0 4.0 0.00 0.00 0.00 56 1013.3
20260505055550 62 196 1.0 6.0 0.00 0.00 0.00 56 1013.4
20260505055046 62 122 1.0 7.0 0.00 0.00 0.00 55 1013.4
20260505054549 62 155 1.0 7.0 0.00 0.00 0.00 55 1013.4
20260505054045 63 355 1.0 4.0 0.00 0.00 0.00 55 1013.4
20260505053545 63 201 1.0 4.0 0.00 0.00 0.00 55 1013.4
20260505053045 63 135 1.0 3.0 0.00 0.00 0.00 55 1013.4
20260505052549 63 121 1.0 3.0 0.00 0.00 0.00 55 1013.4
20260505052045 63 120 1.0 7.0 0.00 0.00 0.00 55 1013.5
20260505051545 63 175 2.0 7.0 0.00 0.00 0.00 55 1013.5
20260505051045 63 169 2.0 7.0 0.00 0.00 0.00 55 1013.4
20260505050544 63 188 1.0 4.0 0.00 0.00 0.00 54 1013.4
20260505041539 63 193 1.0 5.0 0.00 0.00 0.00 54 1013.1
20260505041041 63 167 2.0 8.0 0.00 0.00 0.00 54 1013.1
20260505040538 63 198 1.0 8.0 0.00 0.00 0.00 54 1013.1
20260505040051 63 161 0.0 3.0 0.00 0.00 0.00 55 1013.0
20260505035535 63 128 0.0 2.0 0.00 0.00 0.00 55 1013.0
20260505035039 62 146 0.0 0.0 0.00 0.00 0.00 55 1013.1
20260505034541 62 146 0.0 0.0 0.00 0.00 0.00 55 1012.9
20260505034035 62 146 0.0 1.0 0.00 0.00 0.00 55 1012.9
20260505033535 62 146 0.0 3.0 0.00 0.00 0.00 55 1013.0
20260505033034 62 146 0.0 3.0 0.00 0.00 0.00 55 1013.0
20260505032535 62 177 0.0 0.0 0.00 0.00 0.00 55 1013.0
20260505032036 63 177 0.0 2.0 0.00 0.00 0.00 55 1013.0
20260505031545 63 177 0.0 2.0 0.00 0.00 0.00 55 1013.0
20260505031034 63 180 0.0 0.0 0.00 0.00 0.00 55 1013.0
20260505030534 63 180 0.0 1.0 0.00 0.00 0.00 55 1013.0
20260505030034 63 180 0.0 1.0 0.00 0.00 0.00 55 1013.0
20260505025534 63 180 0.0 1.0 0.00 0.00 0.00 55 1013.0
20260505025038 63 180 0.0 1.0 0.00 0.00 0.00 55 1013.1
20260505024534 64 180 0.0 0.0 0.00 0.00 0.00 55 1013.2
20260505024034 64 180 0.0 0.0 0.00 0.00 0.00 54 1013.1
20260505023533 64 180 0.0 0.0 0.00 0.00 0.00 55 1013.0
20260505023033 64 180 0.0 0.0 0.00 0.00 0.00 55 1013.0
20260505022534 64 180 0.0 1.0 0.00 0.00 0.00 54 1013.0
20260505022033 65 180 0.0 1.0 0.00 0.00 0.00 54 1013.0
20260505021535 65 180 0.0 0.0 0.00 0.00 0.00 54 1012.9
20260505021033 65 180 0.0 0.0 0.00 0.00 0.00 53 1013.0
20260505020533 65 180 0.0 0.0 0.00 0.00 0.00 53 1012.9
20260505020039 65 180 0.0 0.0 0.00 0.00 0.00 53 1012.9
20260505015533 66 180 0.0 0.0 0.00 0.00 0.00 53 1012.9
20260505015032 66 180 0.0 0.0 0.00 0.00 0.00 52 1012.8
20260505014534 66 180 0.0 0.0 0.00 0.00 0.00 52 1012.9
20260505014034 66 180 0.0 0.0 0.00 0.00 0.00 52 1012.8
20260505013531 67 180 0.0 0.0 0.00 0.00 0.00 51 1012.7
20260505013032 67 180 0.0 0.0 0.00 0.00 0.00 50 1012.7
20260505012532 67 180 0.0 0.0 0.00 0.00 0.00 49 1012.7
20260505012035 67 180 0.0 0.0 0.00 0.00 0.00 50 1012.5
20260505011531 68 180 0.0 0.0 0.00 0.00 0.00 49 1012.5
20260505011032 68 180 0.0 0.0 0.00 0.00 0.00 49 1012.4
20260505010531 68 180 0.0 0.0 0.00 0.00 0.00 49 1012.5
20260505010033 68 180 0.0 0.0 0.00 0.00 0.00 48 1012.4
20260505005532 69 180 0.0 0.0 0.00 0.00 0.00 47 1012.4
20260505005030 69 180 0.0 0.0 0.00 0.00 0.00 48 1012.2
20260505004531 69 180 0.0 0.0 0.00 0.00 0.00 47 1012.2
20260505004030 70 180 0.0 0.0 0.00 0.00 0.00 47 1012.4
20260505003530 70 180 0.0 0.0 0.00 0.00 0.00 47 1012.3
20260505003030 70 180 0.0 0.0 0.00 0.00 0.00 46 1012.3
20260505002529 70 180 0.0 0.0 0.00 0.00 0.00 45 1012.3
20260505002029 71 180 0.0 0.0 0.00 0.00 0.00 44 1012.3
20260505001530 71 180 0.0 0.0 0.00 0.00 0.00 44 1012.1
20260505001029 71 180 0.0 0.0 0.00 0.00 0.00 42 1012.3
20260505000528 71 180 0.0 0.0 0.00 0.00 0.00 41 1012.4
20260505000042 72 180 0.0 0.0 0.00 0.00 0.00 41 1012.5
20260504235529 72 180 0.0 0.0 0.00 0.00 0.00 40 1012.5
20260504235028 72 180 0.0 0.0 0.00 0.00 0.00 40 1012.4
20260504234528 72 180 0.0 0.0 0.00 0.00 0.00 39 1012.2
20260504234027 73 180 0.0 1.0 0.00 0.00 0.00 39 1012.3
20260504233527 73 180 0.0 1.0 0.00 0.00 0.00 38 1012.2
20260504233027 73 180 0.0 2.0 0.00 0.00 0.00 38 1012.2
20260504232528 73 180 0.0 2.0 0.00 0.00 0.00 38 1012.1
20260504232027 73 180 0.0 1.0 0.00 0.00 0.00 37 1012.1
20260504231527 73 180 0.0 2.0 0.00 0.00 0.00 37 1011.9
20260504231027 74 180 0.0 2.0 0.00 0.00 0.00 36 1012.0
20260504230527 74 180 1.0 4.0 0.00 0.00 0.00 36 1011.9
20260504230027 74 57 1.0 7.0 0.00 0.00 0.00 36 1011.9
20260504225531 74 207 1.0 9.0 0.00 0.00 0.00 35 1012.0
20260504225025 74 155 1.0 9.0 0.00 0.00 0.00 34 1012.0
20260504224525 74 194 1.0 3.0 0.00 0.00 0.00 35 1012.1
20260504224025 74 231 1.0 4.0 0.00 0.00 0.00 35 1012.2
20260504223525 74 111 1.0 4.0 0.00 0.00 0.00 34 1012.1
20260504223026 75 192 1.0 4.0 0.00 0.00 0.00 34 1012.1
20260504222525 75 214 1.0 7.0 0.00 0.00 0.00 34 1012.2
20260504222025 75 237 2.0 7.0 0.00 0.00 0.00 34 1012.1
20260504221527 75 238 1.0 5.0 0.00 0.00 0.00 34 1012.0
20260504221025 75 208 1.0 4.0 0.00 0.00 0.00 34 1011.9
20260504220526 75 210 2.0 4.0 0.00 0.00 0.00 33 1012.1
20260504220040 75 227 1.0 4.0 0.00 0.00 0.00 35 1012.0
20260504215524 75 228 1.0 4.0 0.00 0.00 0.00 35 1012.0
20260504215026 75 228 2.0 4.0 0.00 0.00 0.00 32 1012.0
20260504214524 76 119 1.0 4.0 0.00 0.00 0.00 32 1012.1
20260504214022 76 189 1.0 4.0 0.00 0.00 0.00 33 1012.0
20260504213524 76 241 0.0 4.0 0.00 0.00 0.00 32 1012.1
20260504213023 76 233 1.0 5.0 0.00 0.00 0.00 31 1012.1
20260504212522 76 233 2.0 6.0 0.00 0.00 0.00 31 1012.0
20260504212024 76 222 2.0 6.0 0.00 0.00 0.00 32 1012.0
20260504211526 76 221 0.0 4.0 0.00 0.00 0.00 33 1012.0
20260504211021 76 229 2.0 4.0 0.00 0.00 0.00 31 1012.1
20260504210521 77 210 1.0 9.0 0.00 0.00 0.00 31 1012.1
20260504210022 77 159 3.0 9.0 0.00 0.00 0.00 31 1012.0
20260504205521 77 220 1.0 4.0 0.00 0.00 0.00 31 1011.9
20260504205019 77 207 1.0 7.0 0.00 0.00 0.00 31 1012.0
20260504204534 78 155 2.0 7.0 0.00 0.00 0.00 29 1012.0
20260504204019 78 118 1.0 5.0 0.00 0.00 0.00 31 1012.1
20260504203519 78 209 1.0 4.0 0.00 0.00 0.00 30 1012.2
20260504203018 79 203 1.0 5.0 0.00 0.00 0.00 30 1012.1
20260504202518 79 202 2.0 5.0 0.00 0.00 0.00 29 1012.3
20260504202016 80 247 1.0 5.0 0.00 0.00 0.00 29 1012.2
20260504201517 80 220 2.0 5.0 0.00 0.00 0.00 28 1012.2
20260504201016 81 217 1.0 4.0 0.00 0.00 0.00 28 1012.3
20260504200515 81 198 2.0 5.0 0.00 0.00 0.00 29 1012.3
20260504200016 81 232 2.0 5.0 0.00 0.00 0.00 28 1012.4
20260504195516 81 156 2.0 5.0 0.00 0.00 0.00 28 1012.4
20260504195015 82 238 1.0 4.0 0.00 0.00 0.00 27 1012.5
20260504194515 82 238 1.0 4.0 0.00 0.00 0.00 28 1012.5
20260504194014 81 110 0.0 3.0 0.00 0.00 0.00 28 1012.5
20260504193511 81 90 0.0 3.0 0.00 0.00 0.00 28 1012.7
20260504193011 81 159 1.0 3.0 0.00 0.00 0.00 29 1012.7
20260504192509 81 142 1.0 3.0 0.00 0.00 0.00 30 1012.9
20260504192011 80 142 0.0 4.0 0.00 0.00 0.00 30 1012.9
20260504191507 80 142 1.0 4.0 0.00 0.00 0.00 30 1013.0
20260504191006 79 138 1.0 3.0 0.00 0.00 0.00 29 1013.1
20260504190505 79 146 1.0 9.0 0.00 0.00 0.00 31 1013.1
20260504190010 78 125 1.0 9.0 0.00 0.00 0.00 31 1013.1
20260504185502 78 195 2.0 7.0 0.00 0.00 0.00 31 1013.3
20260504185005 77 152 2.0 5.0 0.00 0.00 0.00 31 1013.4
20260504184504 77 224 1.0 4.0 0.00 0.00 0.00 34 1013.4
20260504184001 77 224 1.0 3.0 0.00 0.00 0.00 32 1013.4
20260504183502 77 224 0.0 3.0 0.00 0.00 0.00 33 1013.3
20260504183001 77 224 1.0 3.0 0.00 0.00 0.00 31 1013.4
20260504182600 77 217 1.0 3.0 0.00 0.00 0.00 31 1013.5
20260504182059 77 217 1.0 4.0 0.00 0.00 0.00 31 1013.5
20260504181559 77 190 2.0 4.0 0.00 0.00 0.00 30 1013.8
20260504181058 77 149 2.0 9.0 0.00 0.00 0.00 30 1013.8
20260504180559 76 214 2.0 9.0 0.00 0.00 0.00 30 1013.8
20260504180137 76 190 1.0 6.0 0.00 0.00 0.00 31 1014.1
20260504175557 76 179 2.0 6.0 0.00 0.00 0.00 31 1014.2
20260504175056 76 198 2.0 4.0 0.00 0.00 0.00 32 1014.2
20260504174554 76 223 1.0 6.0 0.00 0.00 0.00 32 1014.2
20260504174055 76 215 2.0 6.0 0.00 0.00 0.00 31 1014.3
20260504173554 76 196 1.0 5.0 0.00 0.00 0.00 34 1014.3
20260504173053 77 145 2.0 5.0 0.00 0.00 0.00 33 1014.4
20260504172553 77 214 0.0 4.0 0.00 0.00 0.00 32 1014.4
20260504172056 77 213 1.0 4.0 0.00 0.00 0.00 32 1014.5
20260504171553 77 199 0.0 4.0 0.00 0.00 0.00 32 1014.5
20260504171052 77 198 1.0 4.0 0.00 0.00 0.00 32 1014.7
20260504170551 77 163 1.0 3.0 0.00 0.00 0.00 30 1014.6
20260504151027 73 175 2.0 5.0 0.00 0.00 0.00 35 1015.8
20260504150526 73 151 1.0 8.0 0.00 0.00 0.00 35 1015.8
20260504141010 66 115 1.0 4.0 0.00 0.00 0.00 44 1016.0
20260504140508 65 127 0.0 2.0 0.00 0.00 0.00 47 1016.1